This is the latest recevied weather packets stored in our database for station/object KD8JAM. If no packets are shown the sender has not sent any weather packets the latest 10 day(s).
| Time | Temp. | Humidity | Pressure | Rain* | Wind** | Luminosity | Snow |
|---|---|---|---|---|---|---|---|
| 1777905346 | 6.11° C | 99% | 992.5 hPa | 0 mm | - | 29 W/m² | - |
| 1777905044 | 5.56° C | 99% | 992.1 hPa | 0 mm | - | 26 W/m² | - |
| 1777904742 | 5.56° C | 99% | 992.3 hPa | 1.27 mm | - | 33 W/m² | - |
| 1777904439 | 6.11° C | 99% | 992.5 hPa | 1.27 mm | - | 59 W/m² | - |
| 1777904135 | 6.11° C | 99% | 992.1 hPa | 0 mm | - | 50 W/m² | - |
| 1777903832 | 6.67° C | 95% | 992.2 hPa | 0 mm | - | 43 W/m² | - |
| 1777903529 | 7.78° C | 90% | 992 hPa | 0 mm | - | 46 W/m² | - |
| 1777903225 | 8.89° C | 83% | 991.8 hPa | 0 mm | - | 73 W/m² | - |
| 1777902921 | 9.44° C | 77% | 991.5 hPa | 0 mm | - | 87 W/m² | - |
| 1777902618 | 9.44° C | 76% | 991.5 hPa | 0 mm | - | 120 W/m² | - |
| 1777902315 | 10° C | 74% | 991.3 hPa | 0 mm | - | 212 W/m² | - |
| 1777902013 | 10° C | 73% | 991.2 hPa | 0 mm | - | 173 W/m² | - |
| 1777901711 | 10.56° C | 71% | 990.9 hPa | 0 mm | - | 154 W/m² | - |
| 1777901408 | 10.56° C | 69% | 990.7 hPa | 0 mm | - | 150 W/m² | - |
| 1777901105 | 11.67° C | 65% | 990.8 hPa | 0 mm | - | 156 W/m² | - |
| 1777900803 | 13.89° C | 61% | 990.4 hPa | 0 mm | - | 165 W/m² | - |
| 1777900500 | 15.56° C | 50% | 989.2 hPa | 0 mm | - | 113 W/m² | - |
| 1777900197 | 14.44° C | 55% | 989.3 hPa | 0 mm | - | 135 W/m² | - |
| 1777899893 | 13.33° C | 58% | 989.2 hPa | 0 mm | - | 113 W/m² | - |
| 1777899589 | 13.33° C | 58% | 989.4 hPa | 0 mm | - | 38 W/m² | - |
| 1777899287 | 13.33° C | 57% | 989.5 hPa | 0 mm | - | 38 W/m² | - |
| 1777898985 | 13.89° C | 58% | 989.6 hPa | 0 mm | - | 73 W/m² | - |
| 1777898682 | 13.89° C | 59% | 989.6 hPa | 0 mm | - | 66 W/m² | - |
| 1777898379 | 13.89° C | 60% | 989.4 hPa | 0 mm | - | 34 W/m² | - |
| 1777898077 | 12.78° C | 62% | 989.7 hPa | 0 mm | - | 32 W/m² | - |
* Rain latest hour (hover to see other rain measurements)
** Current wind speed in m/s (hover to see current wind gust speed)